QPF
0.00 0.00 0.00 0.00 0.00 0.00 0.00 0.00 0.00 0.00 0.00 0.01 0.03 0.03 0.02 0.01 0.03 0.03 0.04 0.08 0.11 0.16 0.05 0.08 0.02 0.04 0.09 0.13 0.20 0.23 0.14 0.05
0.00 0.00 0.00 0.00 0.00 0.00 0.00 0.00 0.00 0.00 0.00 0.00 0.00 0.01 0.03 0.04 0.04 0.03 0.04 0.08 0.14 0.15 0.17 0.13 0.04 0.03 0.05 0.06 0.08 0.07 0.04 0.02
0.00 0.00 0.00 0.00 0.00 0.00 0.00 0.00 0.00 0.00 0.00 0.00 0.00 0.00 0.00 0.02 0.07 0.10 0.11 0.14 0.17 0.20 0.25 0.18 0.05 0.07 0.10 0.07 0.06 0.05 0.04 0.01
0.00 0.00 0.00 0.00 0.00 0.00 0.00 0.00 0.00 0.00 0.00 0.00 0.00 0.00 0.00 0.00 0.02 0.07 0.12 0.16 0.21 0.23 0.22 0.20 0.10 0.09 0.07 0.05 0.05 0.03 0.02 0.02
0.00 0.00 0.00 0.00 0.00 0.00 0.00 0.00 0.00 0.00 0.00 0.00 0.00 0.00 0.00 0.00 0.00 0.01 0.03 0.06 0.12 0.26 0.35 0.33 0.29 0.28 0.23 0.14 0.08 0.04 0.01 0.02
0.00 0.00 0.00 0.00 0.00 0.00 0.00 0.00 0.00 0.00 0.00 0.00 0.00 0.00 0.00 0.00 0.00 0.00 0.00 0.02 0.05 0.14 0.27 0.43 0.68 0.84 0.82 0.75 0.52 0.48 0.31 0.13
0.00 0.00 0.00 0.00 0.00 0.00 0.00 0.00 0.00 0.00 0.00 0.00 0.00 0.00 0.00 0.00 0.00 0.00 0.00 0.00 0.00 0.00 0.01 0.02 0.10 0.34 0.44 0.73 0.93 0.99 0.83 0.54
0.00 0.00 0.00 0.00 0.00 0.00 0.00 0.00 0.00 0.00 0.00 0.00 0.00 0.00 0.00 0.00 0.00 0.00 0.00 0.00 0.00 0.00 0.00 0.00 0.02 0.09 0.21 0.41 0.59 0.66 0.70 0.47
0.00 0.00 0.00 0.00 0.00 0.00 0.00 0.00 0.00 0.00 0.00 0.00 0.00 0.00 0.00 0.00 0.00 0.00 0.00 0.00 0.00 0.00 0.00 0.00 0.00 0.01 0.03 0.13 0.26 0.37 0.59 0.67
0.00 0.00 0.00 0.00 0.00 0.00 0.00 0.00 0.00 0.00 0.00 0.00 0.00 0.00 0.00 0.00 0.00 0.00 0.00 0.00 0.00 0.00 0.00 0.00 0.01 0.01 0.03 0.04 0.07 0.13 0.21 0.33
0.00 0.00 0.00 0.00 0.00 0.00 0.00 0.00 0.00 0.00 0.00 0.00 0.00 0.00 0.01 0.03 0.03 0.03 0.01 0.00 0.00 0.00 0.00 0.01 0.01 0.02 0.05 0.09 0.08 0.04 0.02 0.04
0.00 0.00 0.00 0.00 0.00 0.00 0.00 0.00 0.00 0.00 0.00 0.00 0.01 0.03 0.06 0.08 0.04 0.01 0.00 0.00 0.00 0.00 0.00 0.00 0.01 0.03 0.04 0.08 0.11 0.11 0.07 0.05
0.00 0.00 0.00 0.00 0.00 0.00 0.00 0.00 0.00 0.00 0.00 0.00 0.03 0.15 0.16 0.05 0.00 0.00 0.00 0.00 0.00 0.00 0.00 0.00 0.00 0.01 0.02 0.04 0.05 0.09 0.09 0.08
0.00 0.00 0.00 0.00 0.00 0.00 0.00 0.00 0.00 0.00 0.01 0.12 0.27 0.25 0.07 0.00 0.00 0.00 0.00 0.00 0.00 0.00 0.00 0.00 0.00 0.00 0.00 0.01 0.03 0.04 0.09 0.11
0.00 0.00 0.00 0.00 0.00 0.00 0.00 0.00 0.00 0.00 0.07 0.22 0.15 0.05 0.00 0.00 0.00 0.00 0.00 0.00 0.00 0.00 0.00 0.00 0.00 0.00 0.00 0.00 0.01 0.02 0.03 0.05
0.00 0.00 0.00 0.00 0.00 0.00 0.00 0.00 0.01 0.04 0.09 0.10 0.19 0.15 0.01 0.00 0.00 0.00 0.00 0.00 0.00 0.00 0.00 0.00 0.00 0.00 0.00 0.00 0.00 0.00 0.01 0.02
0.00 0.00 0.00 0.00 0.00 0.00 0.00 0.04 0.16 0.17 0.10 0.12 0.15 0.01 0.00 0.00 0.00 0.00 0.00 0.00 0.00 0.00 0.00 0.00 0.00 0.00 0.00 0.00 0.00 0.00 0.00 0.01
0.00 0.00 0.00 0.00 0.00 0.00 0.01 0.13 0.23 0.25 0.26 0.19 0.06 0.01 0.00 0.00 0.00 0.00 0.00 0.00 0.00 0.00 0.00 0.00 0.00 0.00 0.00 0.00 0.00 0.00 0.00 0.00
0.00 0.00 0.00 0.00 0.00 0.00 0.01 0.08 0.19 0.25 0.30 0.16 0.04 0.00 0.00 0.00 0.00 0.00 0.00 0.00 0.00 0.00 0.00 0.00 0.00 0.00 0.00 0.00 0.00 0.00 0.00 0.00
MSLP
1010.76 1010.84 1010.84 1010.65 1010.65 1010.46 1010.17 1010.00 1009.96 1009.71 1009.39 1009.07 1008.94 1009.06 1008.90 1008.46 1008.24 1008.01 1007.93 1007.87 1008.07 1008.31 1008.90 1009.48 1010.16 1010.91 1011.44 1011.97 1012.53 1013.08 1013.42 1014.41
1011.17 1011.59 1011.67 1011.56 1011.58 1011.41 1011.17 1011.07 1011.00 1010.55 1009.90 1009.76 1009.75 1009.89 1009.96 1009.72 1009.62 1008.56 1007.68 1007.63 1007.53 1007.80 1008.02 1008.76 1009.29 1009.88 1010.40 1011.09 1011.62 1012.19 1013.17 1013.92
1011.79 1012.08 1012.18 1012.19 1012.11 1011.98 1011.66 1011.48 1011.42 1011.24 1010.89 1010.42 1010.20 1010.22 1010.23 1010.06 1009.86 1009.67 1008.77 1008.19 1007.52 1007.70 1007.58 1008.02 1008.56 1009.10 1009.52 1010.00 1010.51 1011.35 1012.04 1012.54
1011.87 1012.26 1012.42 1012.37 1012.54 1012.59 1012.30 1012.10 1011.89 1011.49 1011.48 1010.94 1010.55 1010.19 1009.64 1009.73 1009.60 1009.50 1009.20 1008.69 1008.23 1007.74 1007.29 1007.40 1007.60 1008.05 1008.30 1008.48 1009.05 1009.73 1010.59 1011.69
1012.05 1012.37 1012.64 1012.67 1012.88 1012.94 1012.81 1012.61 1012.12 1011.72 1011.79 1011.51 1011.24 1010.73 1009.81 1009.41 1009.25 1009.01 1008.90 1008.89 1008.39 1008.04 1008.18 1007.27 1007.21 1007.45 1006.68 1006.92 1007.76 1008.48 1009.08 1009.87
1012.20 1012.42 1012.52 1012.40 1012.64 1012.78 1012.93 1012.90 1012.55 1012.40 1012.37 1012.06 1011.46 1011.05 1010.38 1009.43 1008.88 1008.91 1008.83 1008.39 1008.20 1008.13 1008.40 1007.20 1006.99 1008.55 1007.72 1007.62 1006.21 1007.82 1006.31 1008.53
1012.64 1012.48 1012.42 1012.39 1012.61 1012.92 1013.02 1012.73 1012.66 1012.27 1012.20 1011.95 1011.52 1010.90 1010.31 1009.72 1008.89 1008.32 1007.80 1007.83 1007.52 1007.38 1007.60 1007.90 1008.33 1008.16 1008.14 1007.67 1007.26 1008.25 1008.04 1008.00
1012.67 1012.40 1012.39 1012.51 1012.68 1012.80 1012.81 1012.96 1012.70 1012.38 1012.02 1011.88 1011.68 1011.29 1010.45 1009.73 1008.92 1008.12 1007.56 1007.13 1006.88 1006.94 1007.15 1007.23 1007.87 1008.13 1007.78 1007.44 1007.50 1008.27 1008.25 1008.86
1012.60 1012.50 1012.72 1012.77 1012.85 1012.87 1012.88 1012.80 1012.50 1012.28 1012.11 1011.81 1011.63 1011.11 1010.25 1009.27 1008.66 1007.97 1007.66 1007.31 1006.96 1006.67 1006.60 1006.39 1006.38 1006.75 1007.31 1007.48 1007.62 1008.12 1007.60 1008.43
1012.63 1012.86 1013.08 1013.01 1012.84 1012.80 1012.92 1012.87 1012.70 1012.52 1012.32 1011.61 1011.50 1011.03 1010.25 1008.97 1008.09 1007.69 1007.81 1007.70 1007.49 1007.10 1007.01 1006.45 1006.08 1005.84 1006.28 1006.97 1007.17 1006.77 1007.11 1007.83
1013.13 1013.33 1013.20 1013.04 1013.06 1012.87 1012.67 1012.66 1012.65 1012.44 1012.40 1012.09 1011.62 1010.95 1010.21 1009.62 1008.58 1008.07 1007.75 1007.42 1007.35 1006.95 1007.07 1006.91 1006.43 1005.91 1005.79 1005.95 1006.03 1006.12 1006.65 1006.93
1013.31 1013.23 1013.11 1012.90 1012.80 1012.90 1012.58 1012.53 1012.64 1012.63 1012.36 1011.90 1011.57 1011.03 1010.43 1009.50 1008.35 1008.34 1008.00 1008.11 1008.15 1007.84 1007.53 1006.88 1006.80 1006.61 1005.71 1005.37 1005.51 1005.49 1005.84 1006.07
1013.17 1013.11 1012.94 1012.84 1012.59 1012.34 1012.13 1012.56 1012.91 1013.02 1012.25 1011.57 1011.31 1010.76 1009.95 1008.52 1008.24 1008.73 1008.79 1008.88 1008.51 1007.83 1007.57 1007.54 1007.57 1006.88 1006.47 1005.88 1005.73 1005.35 1005.64 1005.51
1012.99 1012.84 1012.79 1012.77 1012.63 1012.47 1012.66 1013.05 1013.46 1013.20 1012.61 1011.56 1011.03 1010.02 1009.24 1009.14 1008.89 1008.91 1009.05 1008.85 1008.77 1008.60 1008.51 1008.29 1007.64 1007.46 1007.39 1006.71 1006.47 1006.57 1005.92 1005.42
1012.73 1012.75 1012.76 1012.87 1012.87 1013.32 1013.69 1013.72 1014.26 1013.56 1011.84 1011.31 1010.56 1010.17 1009.61 1009.48 1009.29 1009.38 1009.43 1009.27 1008.77 1008.38 1008.37 1007.98 1007.84 1007.47 1007.00 1006.49 1006.42 1006.41 1006.13 1005.66
1012.83 1013.00 1012.99 1012.78 1013.48 1014.08 1014.15 1014.46 1014.62 1014.25 1012.73 1011.84 1011.21 1010.66 1010.58 1010.14 1009.85 1009.40 1009.31 1009.12 1008.73 1008.38 1007.88 1007.66 1007.41 1006.76 1006.49 1006.85 1006.55 1006.25 1005.85 1005.46
1012.88 1013.01 1012.87 1013.27 1014.08 1014.28 1014.23 1014.80 1015.02 1014.77 1014.14 1013.20 1012.33 1011.47 1010.64 1009.97 1009.67 1009.42 1009.18 1008.97 1008.65 1008.42 1008.12 1007.68 1007.35 1006.89 1006.65 1007.05 1007.36 1006.82 1006.49 1005.26
1013.09 1013.05 1013.05 1013.48 1014.06 1014.20 1014.18 1014.92 1015.09 1014.72 1014.23 1013.53 1012.98 1012.10 1011.02 1010.35 1009.91 1009.55 1009.28 1009.12 1009.02 1008.82 1008.61 1008.32 1007.76 1007.24 1007.01 1007.24 1007.39 1007.13 1006.37 1005.64
1013.28 1013.70 1014.06 1013.96 1014.06 1014.03 1014.18 1014.63 1014.57 1014.21 1013.75 1013.45 1012.92 1012.24 1011.47 1010.95 1010.46 1010.16 1009.88 1009.66 1009.25 1009.00 1008.80 1008.61 1008.30 1007.87 1007.59 1007.73 1007.57 1007.08 1006.35 1005.82
Thickness
5691 5691 5691 5693 5692 5693 5694 5694 5692 5692 5693 5694 5693 5689 5690 5691 5693 5692 5690 5688 5683 5680 5673 5667 5665 5658 5653 5649 5643 5635 5634 5628
5679 5677 5677 5675 5674 5672 5671 5670 5669 5671 5674 5671 5668 5664 5662 5662 5663 5672 5677 5676 5675 5672 5666 5657 5657 5654 5651 5644 5639 5631 5623 5619
5663 5661 5658 5656 5655 5654 5656 5655 5652 5649 5650 5651 5651 5648 5646 5645 5645 5647 5653 5656 5659 5659 5656 5648 5649 5646 5643 5637 5634 5625 5618 5616
5652 5647 5645 5644 5640 5638 5637 5636 5634 5633 5630 5631 5631 5631 5633 5630 5629 5628 5631 5634 5636 5644 5646 5641 5640 5639 5635 5634 5627 5622 5615 5608
5642 5637 5632 5628 5624 5621 5617 5615 5613 5611 5606 5604 5602 5603 5609 5612 5612 5614 5615 5615 5620 5622 5624 5619 5623 5629 5627 5616 5619 5616 5612 5607
5631 5627 5623 5621 5614 5606 5598 5593 5591 5586 5582 5579 5579 5577 5580 5587 5592 5593 5595 5600 5603 5605 5609 5607 5613 5603 5612 5600 5611 5612 5602 5600
5614 5613 5609 5604 5598 5588 5579 5573 5564 5562 5555 5549 5546 5549 5553 5557 5565 5571 5580 5584 5589 5592 5589 5585 5582 5585 5588 5596 5600 5595 5593 5593
5597 5593 5586 5579 5572 5565 5558 5549 5543 5534 5532 5528 5525 5525 5529 5533 5540 5545 5550 5556 5563 5567 5567 5569 5565 5564 5569 5575 5580 5575 5579 5574
5583 5579 5570 5562 5553 5546 5537 5527 5517 5510 5504 5504 5501 5500 5503 5507 5510 5514 5519 5523 5527 5536 5541 5548 5553 5553 5550 5553 5560 5559 5569 5560
5567 5557 5548 5540 5532 5521 5508 5496 5489 5484 5478 5480 5475 5470 5470 5477 5484 5488 5489 5492 5496 5500 5507 5518 5526 5534 5535 5534 5539 5546 5549 5549
5545 5536 5528 5519 5504 5493 5486 5478 5468 5458 5448 5441 5439 5438 5439 5440 5450 5458 5462 5468 5472 5476 5479 5486 5500 5510 5515 5520 5524 5530 5531 5535
5524 5517 5505 5494 5486 5474 5465 5455 5441 5429 5419 5416 5411 5409 5411 5419 5433 5435 5439 5438 5442 5448 5454 5467 5474 5481 5496 5505 5509 5516 5516 5520
5509 5496 5485 5474 5466 5458 5447 5432 5418 5405 5401 5403 5400 5402 5406 5421 5425 5418 5413 5413 5421 5434 5440 5444 5449 5463 5471 5482 5488 5494 5497 5503
5489 5479 5468 5459 5448 5438 5424 5409 5395 5393 5394 5397 5399 5406 5413 5414 5413 5408 5403 5405 5407 5411 5416 5422 5435 5439 5440 5454 5462 5464 5477 5485
5475 5466 5454 5440 5426 5409 5396 5390 5383 5385 5396 5396 5401 5407 5411 5409 5407 5403 5400 5400 5405 5410 5411 5417 5422 5429 5435 5443 5447 5450 5458 5467
5454 5441 5432 5422 5402 5385 5382 5378 5375 5376 5387 5394 5396 5396 5398 5401 5401 5400 5399 5398 5403 5408 5415 5419 5423 5431 5436 5434 5438 5443 5450 5455
5438 5425 5419 5404 5384 5375 5376 5370 5366 5367 5371 5379 5385 5393 5398 5401 5400 5401 5401 5403 5406 5409 5412 5417 5419 5424 5426 5424 5424 5431 5437 5450
5424 5414 5403 5389 5373 5372 5375 5363 5361 5364 5367 5372 5377 5383 5393 5397 5398 5399 5401 5401 5401 5402 5404 5406 5411 5416 5419 5418 5418 5422 5429 5438
5413 5400 5388 5379 5370 5371 5373 5366 5365 5368 5371 5372 5375 5380 5385 5388 5390 5390 5391 5392 5395 5396 5397 5398 5400 5403 5405 5404 5407 5412 5420 5426